TimeEDT,TemperatureF,Dew PointF,Humidity,Sea Level PressureIn,VisibilityMPH,Wind Direction,Wind SpeedMPH,Gust SpeedMPH,PrecipitationIn,Events,Conditions,WindDirDegrees,DateUTC
12:56 AM,39.9,36.9,89,29.55,10.0,ENE,11.5,21.9,N/A,,Overcast,60,2013-03-25 04:56:00
1:56 AM,41.0,37.0,86,29.55,10.0,NE,5.8,-,N/A,,Overcast,40,2013-03-25 05:56:00
2:27 AM,42.8,37.4,81,29.53,6.0,NE,6.9,-,0.00,Rain,Light Rain,50,2013-03-25 06:27:00
2:47 AM,42.8,41.0,93,29.53,5.0,NNE,4.6,-,0.01,Rain,Light Rain,20,2013-03-25 06:47:00
2:56 AM,42.1,40.5,94,29.54,4.0,Calm,Calm,-,0.01,Rain,Light Rain,0,2013-03-25 06:56:00
3:31 AM,42.8,41.0,93,29.51,5.0,NNW,3.5,-,0.01,,Light Drizzle,330,2013-03-25 07:31:00
3:56 AM,42.1,42.1,100,29.48,3.0,ENE,4.6,-,0.01,,Light Drizzle,60,2013-03-25 07:56:00
4:56 AM,43.0,42.1,97,29.44,3.0,NE,4.6,-,0.01,,Light Drizzle,40,2013-03-25 08:56:00
5:56 AM,42.1,42.1,100,29.46,3.0,WNW,10.4,-,0.02,Rain,Light Rain,290,2013-03-25 09:56:00
6:45 AM,39.2,37.4,93,29.47,3.0,West,15.0,-,0.04,Rain,Light Rain,280,2013-03-25 10:45:00
6:56 AM,41.7,36.3,81,29.48,4.0,WNW,16.1,21.9,0.05,Rain,Light Rain,300,2013-03-25 10:56:00
7:56 AM,37.2,33.6,87,29.51,3.0,WNW,13.8,-,0.00,,Overcast,290,2013-03-25 11:56:00
8:56 AM,37.0,33.6,87,29.51,10.0,WNW,11.5,20.7,N/A,,Overcast,290,2013-03-25 12:56:00
9:47 AM,37.4,35.6,93,29.50,10.0,WNW,10.4,-,N/A,,Overcast,300,2013-03-25 13:47:00
9:56 AM,39.0,35.1,86,29.51,10.0,West,12.7,-,N/A,,Overcast,280,2013-03-25 13:56:00
10:56 AM,39.9,35.1,83,29.51,10.0,WNW,13.8,24.2,N/A,,Mostly Cloudy,290,2013-03-25 14:56:00
11:06 AM,39.2,35.6,87,29.51,10.0,WNW,13.8,-,N/A,,Mostly Cloudy,290,2013-03-25 15:06:00
11:56 AM,43.0,35.1,74,29.52,10.0,West,20.7,27.6,N/A,,Mostly Cloudy,270,2013-03-25 15:56:00
12:56 PM,43.0,33.1,68,29.51,10.0,West,20.7,31.1,N/A,,Mostly Cloudy,280,2013-03-25 16:56:00
1:56 PM,44.1,32.0,63,29.50,10.0,WNW,23.0,31.1,N/A,,Mostly Cloudy,290,2013-03-25 17:56:00
2:56 PM,46.0,34.0,63,29.49,10.0,West,18.4,31.1,N/A,,Mostly Cloudy,280,2013-03-25 18:56:00
3:50 PM,44.6,32.0,61,29.50,10.0,NW,19.6,29.9,N/A,,Mostly Cloudy,310,2013-03-25 19:50:00
3:56 PM,44.1,32.0,63,29.51,10.0,WNW,16.1,29.9,N/A,,Mostly Cloudy,300,2013-03-25 19:56:00
4:49 PM,42.8,32.0,66,29.52,10.0,NW,17.3,25.3,0.00,Rain,Light Rain,310,2013-03-25 20:49:00
4:56 PM,42.1,32.0,67,29.53,10.0,WNW,16.1,32.2,0.00,Rain,Light Rain,300,2013-03-25 20:56:00
5:22 PM,42.8,32.0,66,29.53,10.0,WNW,25.3,34.5,0.00,,Overcast,300,2013-03-25 21:22:00
5:56 PM,41.0,33.1,73,29.56,10.0,WNW,19.6,28.8,0.00,,Overcast,300,2013-03-25 21:56:00
6:56 PM,41.0,32.0,70,29.60,10.0,NW,16.1,23.0,N/A,,Mostly Cloudy,310,2013-03-25 22:56:00
7:56 PM,39.9,32.0,73,29.64,10.0,WNW,13.8,21.9,N/A,,Mostly Cloudy,300,2013-03-25 23:56:00
8:56 PM,41.0,30.9,67,29.67,10.0,NW,15.0,-,N/A,,Mostly Cloudy,310,2013-03-26 00:56:00
9:56 PM,41.0,30.9,67,29.69,10.0,NW,11.5,-,N/A,,Mostly Cloudy,310,2013-03-26 01:56:00
10:56 PM,41.0,32.0,70,29.71,10.0,NW,11.5,-,N/A,,Overcast,310,2013-03-26 02:56:00
11:56 PM,39.9,32.0,73,29.72,10.0,West,6.9,-,N/A,,Overcast,270,2013-03-26 03:56:00